Hebron, NE

12:40 AM CST on November 25, 2017 (GMT -0600)
Hebron Municipal

Weather History for KHJH - October, 2013

Change the Weather History Date:

Tuesday, October 15, 2013

  Actual Average Record
Temperature  
Mean Temperature 48 °F -  
Max Temperature 54 °F 69 °F 87 °F (1968)
Min Temperature 42 °F 41 °F 25 °F (1952)
Degree Days  
Heating Degree Days 17    
Moisture  
Dew Point 37 °F    
Average Humidity 64    
Maximum Humidity 80    
Minimum Humidity 49    
Precipitation  
Precipitation 0.05 in - - ()
Sea Level Pressure  
Sea Level Pressure 30.04 in    
Wind  
Wind Speed 11 mph (NW)    
Max Wind Speed 22 mph    
Max Gust Speed 32 mph    
Visibility 10 miles    
Events      
Averages and records for this station are not official NWS values.
T = Trace of Precipitation, MM = Missing Value Source: NWS Daily Summary

Daily Weather History Graph

Daily Weather History Graph

Search for Another Location

Airport or City:

Trip Planner

Search our weather history database for the weather conditions in past years. The results will help you decide how hot, cold, wet, or windy it might be!

Date:

Astronomy

Oct. 15, 2013 Rise Set
Actual Time 7:41 AM CDT 6:50 PM CDT
Civil Twilight 7:13 AM CDT 7:17 PM CDT
Nautical Twilight 6:42 AM CDT 7:48 PM CDT
Astronomical Twilight 6:10 AM CDT 8:20 PM CDT
Moon 4:56 PM CDT (10/15) 4:05 AM CDT (10/15)
Length of Visible Light 12h 03m
Length of Day
11h 08m
Waxing Gibbous, 88% of the Moon is Illuminated
Oct 15
Waxing Gibbous
Oct 18
Full
Oct 26
Last Quarter
Nov 3
New
Nov 9
First Quarter

Hourly Weather History & Observations

Time (CDT) Temp. Windchill Dew Point Humidity Pressure Visibility Wind Dir Wind Speed Gust Speed Precip Events Conditions
12:15 AM 52.3 °F - 44.6 °F 75% 29.89 in 10.0 mi WNW 6.9 mph - N/A   Clear
12:35 AM 51.8 °F - 43.5 °F 73% 29.90 in 10.0 mi WNW 10.4 mph - N/A   Clear
12:55 AM 50.9 °F - 42.6 °F 73% 29.90 in 10.0 mi WNW 11.5 mph 17.3 mph N/A   Clear
1:15 AM 50.5 °F - 42.3 °F 73% 29.91 in 10.0 mi West 11.5 mph 17.3 mph N/A   Clear
1:35 AM 49.6 °F - 41.0 °F 72% 29.92 in 10.0 mi WNW 11.5 mph 17.3 mph N/A   Clear
1:55 AM 48.7 °F - 40.8 °F 74% 29.93 in 10.0 mi West 13.8 mph 18.4 mph N/A   Clear
2:15 AM 48.2 °F - 40.1 °F 74% 29.93 in 10.0 mi WNW 9.2 mph 18.4 mph N/A   Clear
2:35 AM 47.7 °F - 39.7 °F 74% 29.94 in 10.0 mi WNW 15.0 mph 19.6 mph N/A   Clear
2:55 AM 47.7 °F - 38.5 °F 70% 29.96 in 10.0 mi WNW 12.7 mph 19.6 mph N/A   Clear
3:15 AM 46.4 °F 43.5 °F 38.8 °F 75% 29.97 in 10.0 mi West 5.8 mph - N/A   Clear
3:35 AM 46.2 °F 42.2 °F 38.5 °F 74% 29.97 in 10.0 mi WNW 8.1 mph - N/A   Clear
3:55 AM 45.1 °F 42.0 °F 38.5 °F 77% 29.97 in 10.0 mi West 5.8 mph - N/A   Clear
4:15 AM 45.0 °F 41.2 °F 38.3 °F 77% 29.97 in 10.0 mi West 6.9 mph - N/A   Clear
4:35 AM 44.2 °F 41.0 °F 38.3 °F 80% 29.97 in 10.0 mi West 5.8 mph - N/A   Clear
4:55 AM 44.2 °F 41.0 °F 37.8 °F 78% 29.98 in 10.0 mi West 5.8 mph - N/A   Scattered Clouds
5:15 AM 45.0 °F 40.6 °F 37.9 °F 76% 29.98 in 10.0 mi WNW 8.1 mph - N/A   Mostly Cloudy
5:35 AM 45.5 °F 40.8 °F 37.8 °F 74% 29.98 in 10.0 mi WNW 9.2 mph - N/A   Overcast
5:55 AM 45.5 °F 41.8 °F 37.6 °F 74% 29.99 in 10.0 mi West 6.9 mph - N/A   Overcast
6:15 AM 45.1 °F 40.8 °F 36.9 °F 73% 30.00 in 10.0 mi West 8.1 mph - N/A   Mostly Cloudy
6:35 AM 45.3 °F 41.1 °F 36.0 °F 70% 30.01 in 10.0 mi WNW 8.1 mph 17.3 mph N/A   Mostly Cloudy
6:55 AM 44.4 °F 39.5 °F 36.0 °F 72% 30.01 in 10.0 mi West 9.2 mph - N/A   Scattered Clouds
7:15 AM 43.3 °F 38.1 °F 35.6 °F 74% 30.01 in 10.0 mi West 9.2 mph - N/A   Clear
7:35 AM 43.2 °F 38.4 °F 35.1 °F 73% 30.01 in 10.0 mi West 8.1 mph - N/A   Clear
7:55 AM 42.8 °F 37.5 °F 34.7 °F 73% 30.01 in 10.0 mi West 9.2 mph - N/A   Clear
8:15 AM 43.5 °F 39.4 °F 34.7 °F 71% 30.02 in 10.0 mi WNW 6.9 mph - N/A   Clear
8:35 AM 44.2 °F 38.8 °F 34.9 °F 70% 30.03 in 10.0 mi WNW 10.4 mph 16.1 mph N/A   Clear
8:55 AM 45.3 °F 39.7 °F 35.2 °F 68% 30.04 in 10.0 mi WNW 11.5 mph 18.4 mph N/A   Clear
9:15 AM 46.2 °F 40.8 °F 35.1 °F 65% 30.04 in 10.0 mi WNW 11.5 mph 19.6 mph N/A   Clear
9:35 AM 46.8 °F - 34.9 °F 63% 30.04 in 10.0 mi WNW 13.8 mph 25.3 mph N/A   Clear
9:55 AM 47.3 °F - 35.1 °F 62% 30.05 in 10.0 mi WNW 11.5 mph 31.1 mph N/A   Clear
10:15 AM 48.0 °F - 35.1 °F 61% 30.06 in 10.0 mi NW 20.7 mph 31.1 mph N/A   Scattered Clouds
10:35 AM 48.4 °F - 34.7 °F 59% 30.07 in 10.0 mi WNW 19.6 mph 31.1 mph N/A   Mostly Cloudy
10:55 AM 49.5 °F - 35.4 °F 58% 30.07 in 10.0 mi WNW 17.3 mph 28.8 mph N/A   Mostly Cloudy
11:15 AM 49.5 °F - 34.9 °F 57% 30.07 in 10.0 mi NW 20.7 mph 25.3 mph N/A   Mostly Cloudy
11:35 AM 50.4 °F - 35.4 °F 57% 30.08 in 10.0 mi NW 15.0 mph 26.5 mph N/A   Mostly Cloudy
11:55 AM 51.8 °F - 35.4 °F 54% 30.08 in 10.0 mi NW 21.9 mph 32.2 mph N/A   Mostly Cloudy
12:15 PM 51.6 °F - 35.2 °F 54% 30.08 in 10.0 mi WNW 18.4 mph 27.6 mph N/A   Mostly Cloudy
12:35 PM 52.0 °F - 35.2 °F 53% 30.08 in 10.0 mi NW 19.6 mph 26.5 mph N/A   Overcast
12:55 PM 52.7 °F - 36.0 °F 53% 30.07 in 10.0 mi NW 17.3 mph 26.5 mph N/A   Mostly Cloudy
1:15 PM 53.2 °F - 35.6 °F 51% 30.07 in 10.0 mi NW 20.7 mph 28.8 mph N/A   Mostly Cloudy
1:35 PM 52.9 °F - 35.2 °F 51% 30.06 in 10.0 mi NW 19.6 mph 31.1 mph N/A   Mostly Cloudy
1:55 PM 53.1 °F - 35.4 °F 51% 30.06 in 10.0 mi NW 18.4 mph 27.6 mph N/A   Mostly Cloudy
2:15 PM 54.1 °F - 35.4 °F 49% 30.06 in 10.0 mi NW 20.7 mph 31.1 mph N/A   Overcast
2:35 PM 53.6 °F - 35.1 °F 50% 30.06 in 10.0 mi NW 19.6 mph 28.8 mph N/A   Overcast
2:55 PM 53.4 °F - 35.6 °F 51% 30.06 in 10.0 mi NW 12.7 mph 25.3 mph N/A   Overcast
3:15 PM 53.2 °F - 35.1 °F 50% 30.06 in 10.0 mi NW 15.0 mph 25.3 mph N/A   Overcast
3:35 PM 52.7 °F - 35.8 °F 53% 30.06 in 10.0 mi NW 16.1 mph 24.2 mph N/A   Overcast
3:55 PM 52.5 °F - 35.8 °F 53% 30.06 in 10.0 mi NW 19.6 mph 25.3 mph N/A   Overcast
4:15 PM 52.7 °F - 35.8 °F 53% 30.06 in 10.0 mi NW 16.1 mph 25.3 mph N/A   Overcast
4:35 PM 52.0 °F - 35.1 °F 53% 30.07 in 10.0 mi NW 21.9 mph 28.8 mph N/A   Overcast
4:55 PM 51.8 °F - 35.6 °F 54% 30.07 in 10.0 mi NW 12.7 mph 21.9 mph N/A   Overcast
5:15 PM 51.3 °F - 35.4 °F 55% 30.07 in 10.0 mi NW 13.8 mph 25.3 mph N/A   Overcast
5:35 PM 50.9 °F - 35.8 °F 56% 30.08 in 10.0 mi NW 13.8 mph 19.6 mph N/A   Overcast
5:55 PM 50.5 °F - 35.6 °F 57% 30.08 in 10.0 mi NW 12.7 mph 23.0 mph N/A   Overcast
6:15 PM 50.0 °F - 35.8 °F 58% 30.08 in 10.0 mi NW 12.7 mph 17.3 mph N/A   Overcast
6:35 PM 49.6 °F - 35.6 °F 59% 30.09 in 10.0 mi NW 9.2 mph - N/A   Overcast
6:55 PM 49.5 °F - 34.9 °F 57% 30.09 in 10.0 mi NW 15.0 mph 20.7 mph N/A   Overcast
7:15 PM 49.1 °F - 34.9 °F 58% 30.10 in 10.0 mi NNW 12.7 mph - N/A   Overcast
7:55 PM 48.6 °F - 35.4 °F 60% 30.12 in 10.0 mi NW 9.2 mph - N/A   Overcast
8:15 PM 48.6 °F - 35.6 °F 61% 30.12 in 10.0 mi NW 9.2 mph - N/A   Overcast
8:35 PM 48.4 °F - 35.8 °F 62% 30.13 in 10.0 mi NW 9.2 mph - N/A   Overcast
8:55 PM 48.2 °F - 36.0 °F 63% 30.13 in 10.0 mi NW 8.1 mph - N/A   Overcast
9:15 PM 47.8 °F - 36.3 °F 64% 30.13 in 10.0 mi NW 8.1 mph - N/A   Overcast
9:35 PM 47.7 °F - 35.8 °F 63% 30.13 in 10.0 mi NNW 9.2 mph 18.4 mph N/A   Overcast
9:55 PM 47.5 °F - 35.6 °F 63% 30.14 in 10.0 mi NW 12.7 mph 18.4 mph N/A   Overcast
10:15 PM 46.9 °F - 35.6 °F 65% 30.15 in 10.0 mi NW 8.1 mph - N/A   Overcast
10:35 PM 46.9 °F - 36.0 °F 66% 30.15 in 10.0 mi NW 6.9 mph - N/A   Overcast
10:55 PM 46.8 °F - 36.1 °F 67% 30.15 in 10.0 mi NW 8.1 mph - N/A   Overcast
11:15 PM 46.9 °F - 36.5 °F 67% 30.15 in 10.0 mi NNW 8.1 mph - N/A   Overcast
11:35 PM 46.8 °F - 36.3 °F 67% 30.15 in 10.0 mi NNW 9.2 mph - N/A   Overcast
11:55 PM 46.8 °F - 35.6 °F 65% 30.15 in 10.0 mi NNW 9.2 mph 19.6 mph N/A   Overcast